Weather History for Alexandroupoli, Greece

Change the Weather History Date:

Monday, May 6, 2013

  Actual Average Record
Temperature  
Mean Temperature 70 °F -  
Max Temperature 81 °F 74 °F 84 °F (2007)
Min Temperature 60 °F 53 °F 39 °F (2000)
Cooling Degree Days 6    
Growing Degree Days 20 (Base 50)    
Moisture  
Dew Point 55 °F    
Average Humidity 56    
Maximum Humidity 77    
Minimum Humidity 28    
Precipitation  
Precipitation 0.00 in 0.05 in - ()
Sea Level Pressure  
Sea Level Pressure 30.12 in    
Wind  
Wind Speed 6 mph ()    
Max Wind Speed 17 mph    
Max Gust Speed -    
Visibility 6.2 miles    
Events      
Averages and records for this station are not official NWS values.
T = Trace of Precipitation, MM = Missing Value Source: Averaged Metar Reports

Daily Weather History Graph

Daily Weather History Graph

Search for Another Location

Airport:

Trip Planner

Search our weather history database for the weather conditions in past years. The results will help you decide how hot, cold, wet, or windy it might be!

Date:

Astronomy

May. 06, 2013 Rise Set
Actual Time 6:08 AM EEST 8:17 PM EEST
Civil Twilight 5:38 AM EEST 8:48 PM EEST
Nautical Twilight 5:01 AM EEST 9:25 PM EEST
Astronomical Twilight 4:20 AM EEST 10:06 PM EEST
Moon 4:01 AM EEST (5/6) 4:57 PM EEST (5/6)
Length of Visible Light 15h 09m
Length of Day
14h 09m
Waning Crescent, 13% of the Moon is Illuminated
May 6
Waning Crescent
May 10
New
May 18
First Quarter
May 25
Full
May 31
Last Quarter

Hourly Weather History & Observations

Time (EEST) Temp. Heat Index Dew Point Humidity Pressure Visibility Wind Dir Wind Speed Gust Speed Precip Events Conditions
12:20 AM 68.0 °F - 57.2 °F 68% 30.12 in - North 5.8 mph - N/A   Clear
12:50 AM 66.2 °F - 57.2 °F 73% 30.12 in - NNE 4.6 mph - N/A   Clear
1:20 AM 66.2 °F - 57.2 °F 73% 30.12 in - NNE 4.6 mph - N/A   Clear
1:50 AM 64.4 °F - 57.2 °F 77% 30.12 in - Calm Calm - N/A   Clear
2:20 AM 64.4 °F - 57.2 °F 77% 30.12 in - Calm Calm - N/A   Clear
2:50 AM 64.4 °F - 55.4 °F 73% 30.15 in - Calm Calm - N/A   Clear
3:00 AM 64 °F - 55 °F 64% 30.15 in 6 mi Calm Calm - -  
3:50 AM 62.6 °F - 55.4 °F 77% 30.15 in - Calm Calm - N/A   Clear
4:20 AM 62.6 °F - 55.4 °F 77% 30.15 in - Calm Calm - N/A   Clear
4:50 AM 62.6 °F - 55.4 °F 77% 30.15 in - Calm Calm - N/A   Clear
5:50 AM 62.6 °F - 55.4 °F 77% 30.12 in - Calm Calm - N/A   Clear
6:20 AM 62.6 °F - 55.4 °F 77% 30.12 in - Calm Calm - N/A   Clear
6:50 AM 60.8 °F - 53.6 °F 77% 30.12 in - Calm Calm - N/A   Clear
7:20 AM 60.8 °F - 53.6 °F 77% 30.12 in - Calm Calm - N/A   Clear
7:50 AM 60.8 °F - 53.6 °F 77% 30.12 in - ENE 5.8 mph - N/A   Clear
8:20 AM 62.6 °F - 53.6 °F 72% 30.15 in - ENE 5.8 mph - N/A   Clear
8:50 AM 68.0 °F - 59.0 °F 73% 30.15 in - NE 12.7 mph - N/A   Clear
9:00 AM 68 °F - 59 °F 66% 30.15 in 6 mi NE 12.7 mph - -  
9:20 AM 69.8 °F - 59.0 °F 68% 30.15 in - NE 12.7 mph - N/A   Clear
9:50 AM 73.4 °F - 59.0 °F 61% 30.15 in - NNE 15.0 mph - N/A   Clear
10:20 AM 73.4 °F - 59.0 °F 61% 30.15 in - NNE 15.0 mph - N/A   Clear
10:50 AM 75.2 °F - 60.8 °F 61% 30.18 in - NE 16.1 mph - N/A   Clear
11:20 AM 77.0 °F - 60.8 °F 57% 30.18 in - NE 16.1 mph - N/A   Clear
11:50 AM 78.8 °F - 60.8 °F 54% 30.18 in - NE 16.1 mph - N/A   Clear
12:20 PM 78.8 °F - 60.8 °F 54% 30.18 in - NE 16.1 mph - N/A   Clear
12:50 PM 80.6 °F 81.5 °F 60.8 °F 51% 30.15 in 6.2 mi NE 15.0 mph - N/A   Partly Cloudy
1:20 PM 80.6 °F 81.5 °F 60.8 °F 51% 30.15 in 6.2 mi NE 15.0 mph - N/A   Partly Cloudy
1:50 PM 80.6 °F 80.8 °F 57.2 °F 45% 30.15 in 6.2 mi NE 15.0 mph - N/A   Partly Cloudy
2:20 PM 80.6 °F 80.8 °F 57.2 °F 45% 30.15 in 6.2 mi NE 15.0 mph - N/A   Partly Cloudy
2:50 PM 80.6 °F 80.3 °F 53.6 °F 39% 30.12 in 6.2 mi NE 13.8 mph - N/A   Partly Cloudy
3:00 PM 81 °F - 53 °F 28% 30.14 in 6 mi NE 13.8 mph - -   Scattered Clouds
3:20 PM 80.6 °F 80.3 °F 53.6 °F 39% 30.12 in 6.2 mi NE 13.8 mph - N/A   Partly Cloudy
3:50 PM 80.6 °F - 50.0 °F 34% 30.12 in 6.2 mi NE 16.1 mph - N/A   Partly Cloudy
4:20 PM 80.6 °F - 51.8 °F 37% 30.09 in 6.2 mi NE 16.1 mph - N/A   Partly Cloudy
4:50 PM 80.6 °F - 51.8 °F 37% 30.09 in 6.2 mi NE 12.7 mph - N/A   Partly Cloudy
5:20 PM 80.6 °F - 48.2 °F 32% 30.09 in 6.2 mi NE 17.3 mph - N/A   Partly Cloudy
5:50 PM 80.6 °F - 48.2 °F 32% 30.09 in 6.2 mi NE 12.7 mph - N/A   Partly Cloudy
6:20 PM 80.6 °F - 48.2 °F 32% 30.09 in 6.2 mi NE 12.7 mph - N/A   Partly Cloudy
6:50 PM 80.6 °F - 48.2 °F 32% 30.06 in 6.2 mi East 15.0 mph - N/A   Partly Cloudy
7:20 PM 80.6 °F - 48.2 °F 32% 30.06 in 6.2 mi East 11.5 mph - N/A   Partly Cloudy
7:50 PM 78.8 °F - 48.2 °F 34% 30.09 in 6.2 mi ENE 6.9 mph - N/A   Partly Cloudy
8:20 PM 77.0 °F - 48.2 °F 36% 30.09 in 6.2 mi NE 6.9 mph - N/A   Partly Cloudy
8:50 PM 73.4 °F - 51.8 °F 47% 30.09 in 6.2 mi NE 6.9 mph - N/A   Partly Cloudy
9:00 PM 73 °F - 51 °F 36% 30.11 in 6 mi NE 6.9 mph - -   Scattered Clouds
9:20 PM 71.6 °F - 51.8 °F 50% 30.09 in 6.2 mi NE 6.9 mph - N/A   Partly Cloudy
9:50 PM 69.8 °F - 50.0 °F 49% 30.09 in 6.2 mi NNE 5.8 mph - N/A   Partly Cloudy
10:20 PM 69.8 °F - 50.0 °F 49% 30.09 in 6.2 mi NNE 5.8 mph - N/A   Partly Cloudy
10:50 PM 68.0 °F - 55.4 °F 64% 30.12 in 6.2 mi Variable 3.5 mph - N/A   Partly Cloudy
11:20 PM 68.0 °F - 55.4 °F 64% 30.12 in 6.2 mi NE 4.6 mph - N/A   Partly Cloudy
11:50 PM 66.2 °F - 57.2 °F 73% 30.12 in 6.2 mi East 4.6 mph - N/A   Partly Cloudy